This is the latest recevied weather packets stored in our database for station/object OK2JCZ-6. If no packets are shown the sender has not sent any weather packets the latest 10 day(s).
| Time | Temp. | Humidity | Pressure | Rain* | Wind** | Luminosity | Snow |
|---|---|---|---|---|---|---|---|
| 1777240175 | 1.67° C | 50% | 1023.2 hPa | 0 mm | - | - | - |
| 1777239875 | 1.67° C | 50% | 1023.2 hPa | 0 mm | - | - | - |
| 1777239275 | 1.67° C | 49% | 1023.2 hPa | 0 mm | - | - | - |
| 1777237475 | 1.67° C | 50% | 1023.3 hPa | 0 mm | - | - | - |
| 1777236575 | 2.22° C | 48% | 1023.2 hPa | 0 mm | - | - | - |
| 1777236275 | 2.22° C | 48% | 1023.1 hPa | 0 mm | - | - | - |
| 1777235375 | 3.33° C | 47% | 1023.1 hPa | 0 mm | - | - | - |
| 1777235075 | 3.33° C | 48% | 1023 hPa | 0 mm | - | - | - |
| 1777234775 | 3.33° C | 48% | 1023 hPa | 0 mm | - | - | - |
| 1777234475 | 3.33° C | 48% | 1023 hPa | 0 mm | - | - | - |
| 1777233575 | 3.33° C | 49% | 1023.1 hPa | 0 mm | - | - | - |
| 1777233275 | 3.33° C | 46% | 1023.1 hPa | 0 mm | - | - | - |
| 1777232975 | 3.33° C | 46% | 1023.1 hPa | 0 mm | - | - | - |
| 1777232675 | 3.33° C | 47% | 1023.1 hPa | 0 mm | - | - | - |
| 1777231775 | 4.44° C | 45% | 1022.9 hPa | 0 mm | - | - | - |
| 1777231475 | 4.44° C | 45% | 1022.9 hPa | 0 mm | - | - | - |
| 1777231175 | 4.44° C | 46% | 1022.8 hPa | 0 mm | - | - | - |
| 1777230275 | 4.44° C | 45% | 1022.7 hPa | 0 mm | - | - | - |
| 1777229975 | 5° C | 43% | 1022.7 hPa | 0 mm | - | - | - |
| 1777229375 | 6.11° C | 45% | 1022.6 hPa | 0 mm | - | - | - |
| 1777229075 | 6.11° C | 41% | 1022.5 hPa | 0 mm | - | - | - |
| 1777228175 | 6.11° C | 43% | 1022.4 hPa | 0 mm | - | - | - |
| 1777227876 | 6.11° C | 41% | 1022.3 hPa | 0 mm | - | - | - |
| 1777227575 | 5.56° C | 41% | 1022.2 hPa | 0 mm | - | - | - |
| 1777226675 | 6.11° C | 40% | 1022 hPa | 0 mm | - | - | - |
* Rain latest hour (hover to see other rain measurements)
** Current wind speed in m/s (hover to see current wind gust speed)